Flag for Hungary Weather past 2 weeks in Szeged, Hungary

Now
33 °F

Partly sunny.


Feels Like: 30 °F
Forecast: 29 / 38 °F
Wind: 3 mph from North

Location: Szeged

Current Time: Jan 28, 2015 at 1:07:53 PM

Latest Report: Jan 28, 2015 at 12:00 PM


Visibility: 4 mi

Pressure: 30.06 "Hg

Humidity: 88%

Dew point: 30 °F

Location of SzegedLocation

Historic Weather in Szeged — Graph

°F

Szeged temperature yesterday

Maximum temperature yesterday: 34 °F (at 11:00 AM)
Minimum temperature yesterday: 32 °F (at 5:00 AM)
Average temperature yesterday: 33 °F

Past Weeks' High & Low Weather Summary

 TemperatureHumidityPressure
High51 °F (Jan 15, 3:00 PM)97% (Jan 19, 4:00 AM)30.32 "Hg (Jan 19, 4:00 AM)
Low28 °F (Jan 14, 3:00 AM)39% (Jan 15, 3:00 PM)29.78 "Hg (Jan 24, 2:00 PM)
Average40 °F87%30.02 "Hg
* Reported Jan 13 11:00 AM — Jan 28 11:00 AM, Szeged, Weather by CustomWeather, © 2014

Note: Actual official high and low records may vary slightly from our data, if they occured in-between our weather recording intervals... More about our weather records

Advertising

Szeged weather history for previous 24 hours

 ConditionsComfort  
Time TempWeatherWind HumidityBarometerVisibility
11:00 AM
Jan 28
33 °FPartly sunny.3 mph88%30.08 "Hg4 mi
10:00 AM32 °FOvercast.3 mph86%30.08 "Hg4 mi
9:00 AM31 °FFog.2 mph90%30.07 "Hg2 mi
8:00 AM30 °FFog.2 mph92%30.06 "Hg2 mi
7:00 AM31 °FPassing clouds.2 mph91%30.04 "Hg4 mi
6:00 AM31 °FOvercast.2 mph91%30.03 "Hg4 mi
5:00 AM31 °FOvercast.3 mph91%30.02 "Hg4 mi
4:00 AM31 °FPassing clouds.1 mph91%30.03 "Hg4 mi
3:00 AM31 °FPassing clouds.1 mph91%30.03 "Hg4 mi
2:00 AM31 °FPassing clouds.3 mph90%30.04 "Hg5 mi
1:00 AM31 °FPassing clouds.1 mph88%30.03 "Hg5 mi
12:00 AM31 °FOvercast.2 mph87%30.03 "Hg5 mi
11:00 PM
Jan 27
32 °FOvercast.3 mph86%30.03 "Hg5 mi
10:00 PM32 °FOvercast.2 mph85%30.04 "Hg5 mi
9:00 PM32 °FOvercast.1 mph91%30.04 "Hg4 mi
8:00 PM32 °FOvercast.No wind89%30.03 "Hg4 mi
7:00 PM32 °FOvercast.No wind89%30.03 "Hg4 mi
6:00 PM32 °FOvercast.1 mph88%30.02 "Hg4 mi
5:00 PM33 °FOvercast.1 mph86%30.02 "Hg4 mi
4:00 PM33 °FOvercast.1 mph87%30.02 "Hg4 mi
1:00 PM34 °FLight snow. Overcast.1 mph80%30.03 "Hg3 mi
Weather by CustomWeather, © 2014

See weather overviewHow to use our weather pages